User: anonymous   Login
Location: Unspecified
(0.0000°N, 0.0000°E)
Time: 07:43:17
(UTC+00:00)
Language:

DSCS III A-2 - Orbit

View from above orbital plane
View from above orbital plane
View from above satellite
View from above satellite

Ground track
Ground track

The orbit data is extracted from the following two-line orbital elements,

1 20203U 89069B   18170.70818886 0.00000000  00000-0  00000-0 0    05
2 20203  13.3627  26.8490 0018347 310.2205  49.6311  0.99115215    03
Epoch (UTC): 19 June 2018 16:59:47
Eccentricity: 0.0018347
inclination: 13.3627°
perigee height: 36035 km
apogee height: 36191 km
right ascension of ascending node: 26.8490°
argument of perigee: 310.2205°
revolutions per day: 0.99115215
mean anomaly at epoch: 49.6311°
orbit number at epoch: 0

The dashed part of the orbit path shows where the satellite is in the earth's shadow,  

DLR